| time (UTC) | temp C | wind direction | speed KPH | gust KPH | rain 1hr cm | rain 24hr cm | rain mn cm | humidity % | barometer mb |
| 20260504151022 | 17 | 182 | 3.2 | 17.7 | 0.00 | 0.00 | 0.00 | 38 | 1012.9 |
| 20260504150519 | 17 | 162 | 8.0 | 20.9 | 0.00 | 0.00 | 0.00 | 36 | 1013.1 |
| 20260504140945 | 16 | 206 | 9.7 | 22.5 | 0.00 | 0.00 | 0.00 | 39 | 1013.4 |
| 20260504140441 | 16 | 238 | 11.3 | 25.7 | 0.00 | 0.00 | 0.00 | 40 | 1013.4 |
| 20260504130406 | 13 | 187 | 0.0 | 3.2 | 0.00 | 0.00 | 0.00 | 49 | 1014.0 |
| 20260504110253 | 2 | 352 | 0.0 | 0.0 | 0.00 | 0.00 | 0.00 | 90 | 1014.5 |
| 20260504100211 | 0 | 351 | 0.0 | 0.0 | 0.00 | 0.00 | 0.00 | 93 | 1014.3 |
| 20260504090133 | 0 | 347 | 0.0 | 1.6 | 0.00 | 0.00 | 0.00 | 93 | 1014.0 |
| 20260504081604 | 1 | 350 | 0.0 | 0.0 | 0.00 | 0.00 | 0.00 | 91 | 1013.9 |
| 20260504081100 | 1 | 350 | 0.0 | 0.0 | 0.00 | 0.00 | 0.00 | 91 | 1014.0 |
| 20260504080557 | 1 | 350 | 0.0 | 0.0 | 0.00 | 0.00 | 0.00 | 91 | 1013.9 |
| 20260504050409 | 2 | 352 | 0.0 | 0.0 | 0.00 | 0.00 | 0.00 | 84 | 1013.7 |
| 20260504045906 | 2 | 352 | 0.0 | 0.0 | 0.00 | 0.00 | 0.00 | 85 | 1013.4 |
| 20260504045402 | 2 | 352 | 0.0 | 0.0 | 0.00 | 0.00 | 0.00 | 86 | 1013.5 |
| 20260504044859 | 2 | 352 | 0.0 | 1.6 | 0.00 | 0.00 | 0.00 | 86 | 1013.3 |
| 20260504044356 | 2 | 352 | 0.0 | 1.6 | 0.00 | 0.00 | 0.00 | 86 | 1013.7 |
| 20260504043854 | 2 | 352 | 0.0 | 0.0 | 0.00 | 0.00 | 0.00 | 86 | 1013.6 |
| 20260504043350 | 2 | 352 | 0.0 | 0.0 | 0.00 | 0.00 | 0.00 | 85 | 1013.6 |
| 20260504042848 | 2 | 352 | 0.0 | 0.0 | 0.00 | 0.00 | 0.00 | 85 | 1013.6 |
| 20260504042344 | 2 | 352 | 0.0 | 0.0 | 0.00 | 0.00 | 0.00 | 85 | 1013.7 |
| 20260504041840 | 2 | 352 | 0.0 | 0.0 | 0.00 | 0.00 | 0.00 | 84 | 1013.6 |
| 20260504041336 | 2 | 352 | 0.0 | 0.0 | 0.00 | 0.00 | 0.00 | 84 | 1013.5 |
| 20260504040832 | 2 | 352 | 0.0 | 0.0 | 0.00 | 0.00 | 0.00 | 84 | 1013.7 |
| 20260504040330 | 2 | 352 | 1.6 | 1.6 | 0.00 | 0.00 | 0.00 | 83 | 1013.7 |
| 20260504035826 | 3 | 352 | 0.0 | 0.0 | 0.00 | 0.00 | 0.00 | 82 | 1013.4 |
| 20260504035324 | 3 | 352 | 0.0 | 0.0 | 0.00 | 0.00 | 0.00 | 82 | 1013.4 |
| 20260504034820 | 3 | 352 | 0.0 | 0.0 | 0.00 | 0.00 | 0.00 | 82 | 1013.3 |
| 20260504034318 | 3 | 352 | 0.0 | 0.0 | 0.00 | 0.00 | 0.00 | 81 | 1013.4 |
| 20260504033815 | 3 | 352 | 0.0 | 0.0 | 0.00 | 0.00 | 0.00 | 81 | 1013.2 |
| 20260504033313 | 3 | 352 | 0.0 | 0.0 | 0.00 | 0.00 | 0.00 | 81 | 1013.4 |
| 20260504032809 | 3 | 352 | 0.0 | 0.0 | 0.00 | 0.00 | 0.00 | 80 | 1013.4 |
| 20260504032307 | 3 | 352 | 0.0 | 0.0 | 0.00 | 0.00 | 0.00 | 80 | 1013.2 |
| 20260504031803 | 3 | 352 | 0.0 | 0.0 | 0.00 | 0.00 | 0.00 | 79 | 1013.1 |
| 20260504031301 | 3 | 352 | 0.0 | 0.0 | 0.00 | 0.00 | 0.00 | 79 | 1013.4 |
| 20260504030757 | 3 | 352 | 0.0 | 0.0 | 0.00 | 0.00 | 0.00 | 78 | 1013.2 |
| 20260504030254 | 3 | 352 | 0.0 | 0.0 | 0.00 | 0.00 | 0.00 | 78 | 1013.0 |
| 20260504025750 | 3 | 352 | 0.0 | 0.0 | 0.00 | 0.00 | 0.00 | 78 | 1013.0 |
| 20260504025247 | 3 | 352 | 0.0 | 0.0 | 0.00 | 0.00 | 0.00 | 77 | 1013.3 |
| 20260504024744 | 4 | 352 | 0.0 | 0.0 | 0.00 | 0.00 | 0.00 | 77 | 1013.2 |
| 20260504024241 | 4 | 352 | 0.0 | 0.0 | 0.00 | 0.00 | 0.00 | 76 | 1013.1 |
| 20260504023738 | 4 | 352 | 1.6 | 1.6 | 0.00 | 0.00 | 0.00 | 75 | 1013.1 |
| 20260504023234 | 5 | 352 | 1.6 | 1.6 | 0.00 | 0.00 | 0.00 | 73 | 1013.0 |
| 20260504022730 | 5 | 352 | 0.0 | 0.0 | 0.00 | 0.00 | 0.00 | 71 | 1013.1 |
| 20260504022226 | 5 | 352 | 0.0 | 0.0 | 0.00 | 0.00 | 0.00 | 71 | 1013.1 |
| 20260504021723 | 5 | 353 | 0.0 | 0.0 | 0.00 | 0.00 | 0.00 | 69 | 1012.8 |
| 20260504021221 | 5 | 353 | 0.0 | 1.6 | 0.00 | 0.00 | 0.00 | 70 | 1013.0 |
| 20260504020717 | 5 | 353 | 0.0 | 0.0 | 0.00 | 0.00 | 0.00 | 70 | 1013.2 |
| 20260504020214 | 5 | 353 | 0.0 | 0.0 | 0.00 | 0.00 | 0.00 | 71 | 1013.2 |
| 20260504015710 | 5 | 353 | 1.6 | 1.6 | 0.00 | 0.00 | 0.00 | 70 | 1013.0 |
| 20260504015207 | 5 | 353 | 1.6 | 1.6 | 0.00 | 0.00 | 0.00 | 69 | 1013.0 |
| 20260504014702 | 6 | 353 | 0.0 | 0.0 | 0.00 | 0.00 | 0.00 | 68 | 1013.0 |
| 20260504014159 | 6 | 353 | 0.0 | 0.0 | 0.00 | 0.00 | 0.00 | 67 | 1013.0 |
| 20260504013657 | 6 | 353 | 0.0 | 0.0 | 0.00 | 0.00 | 0.00 | 66 | 1012.8 |
| 20260504013154 | 6 | 353 | 0.0 | 0.0 | 0.00 | 0.00 | 0.00 | 65 | 1012.7 |
| 20260504012651 | 6 | 353 | 0.0 | 0.0 | 0.00 | 0.00 | 0.00 | 64 | 1012.7 |
| 20260504012149 | 7 | 353 | 0.0 | 0.0 | 0.00 | 0.00 | 0.00 | 63 | 1012.9 |
| 20260504011645 | 7 | 353 | 0.0 | 0.0 | 0.00 | 0.00 | 0.00 | 61 | 1012.7 |
| 20260504011142 | 7 | 353 | 0.0 | 0.0 | 0.00 | 0.00 | 0.00 | 60 | 1012.4 |
| 20260504010638 | 7 | 353 | 0.0 | 0.0 | 0.00 | 0.00 | 0.00 | 60 | 1012.6 |
| 20260504010134 | 7 | 353 | 0.0 | 0.0 | 0.00 | 0.00 | 0.00 | 60 | 1012.4 |
| 20260504005631 | 8 | 353 | 1.6 | 1.6 | 0.00 | 0.00 | 0.00 | 59 | 1012.3 |
| 20260504005128 | 8 | 353 | 1.6 | 1.6 | 0.00 | 0.00 | 0.00 | 57 | 1012.1 |
| 20260504004626 | 8 | 353 | 1.6 | 3.2 | 0.00 | 0.00 | 0.00 | 54 | 1012.3 |
| 20260504004123 | 8 | 352 | 1.6 | 3.2 | 0.00 | 0.00 | 0.00 | 54 | 1012.2 |
| 20260504003619 | 8 | 353 | 0.0 | 1.6 | 0.00 | 0.00 | 0.00 | 52 | 1012.1 |
| 20260504003115 | 8 | 353 | 1.6 | 1.6 | 0.00 | 0.00 | 0.00 | 51 | 1011.9 |
| 20260504002612 | 8 | 352 | 1.6 | 1.6 | 0.00 | 0.00 | 0.00 | 52 | 1011.9 |
| 20260504002110 | 8 | 352 | 1.6 | 1.6 | 0.00 | 0.00 | 0.00 | 52 | 1011.9 |
| 20260504001608 | 9 | 352 | 1.6 | 1.6 | 0.00 | 0.00 | 0.00 | 52 | 1011.7 |
| 20260504001103 | 9 | 352 | 1.6 | 3.2 | 0.00 | 0.00 | 0.00 | 52 | 1011.6 |
| 20260504000601 | 10 | 352 | 1.6 | 3.2 | 0.00 | 0.00 | 0.00 | 50 | 1011.7 |
| 20260504000058 | 10 | 352 | 0.0 | 1.6 | 0.00 | 0.00 | 0.00 | 49 | 1011.6 |
| 20260503235556 | 10 | 352 | 1.6 | 3.2 | 0.00 | 0.00 | 0.00 | 45 | 1011.6 |
| 20260503235053 | 10 | 352 | 1.6 | 1.6 | 0.00 | 0.00 | 0.00 | 44 | 1011.3 |
| 20260503234551 | 10 | 353 | 1.6 | 1.6 | 0.00 | 0.00 | 0.00 | 40 | 1011.6 |
| 20260503234049 | 11 | 352 | 0.0 | 1.6 | 0.00 | 0.00 | 0.00 | 41 | 1011.2 |
| 20260503233545 | 11 | 352 | 1.6 | 4.8 | 0.00 | 0.00 | 0.00 | 39 | 1011.3 |
| 20260503233041 | 11 | 210 | 1.6 | 1.6 | 0.00 | 0.00 | 0.00 | 39 | 1011.3 |
| 20260503232538 | 11 | 210 | 0.0 | 1.6 | 0.00 | 0.00 | 0.00 | 38 | 1011.3 |
| 20260503232036 | 11 | 210 | 0.0 | 1.6 | 0.00 | 0.00 | 0.00 | 37 | 1011.3 |
| 20260503231533 | 11 | 210 | 1.6 | 3.2 | 0.00 | 0.00 | 0.00 | 36 | 1011.1 |
| 20260503231030 | 12 | 212 | 1.6 | 3.2 | 0.00 | 0.00 | 0.00 | 36 | 1011.1 |
| 20260503230526 | 12 | 136 | 1.6 | 3.2 | 0.00 | 0.00 | 0.00 | 35 | 1011.1 |
| 20260503230024 | 13 | 237 | 1.6 | 3.2 | 0.00 | 0.00 | 0.00 | 34 | 1011.0 |
| 20260503225521 | 12 | 108 | 1.6 | 4.8 | 0.00 | 0.00 | 0.00 | 35 | 1010.7 |
| 20260503225016 | 12 | 314 | 11.3 | 14.5 | 0.00 | 0.00 | 0.00 | 34 | 1011.1 |
| 20260503224514 | 13 | 10 | 1.6 | 3.2 | 0.00 | 0.00 | 0.00 | 35 | 1011.0 |
| 20260503224011 | 13 | 293 | 3.2 | 11.3 | 0.00 | 0.00 | 0.00 | 34 | 1011.0 |
| 20260503223509 | 13 | 249 | 3.2 | 14.5 | 0.00 | 0.00 | 0.00 | 34 | 1010.8 |
| 20260503223004 | 13 | 237 | 4.8 | 9.7 | 0.00 | 0.00 | 0.00 | 35 | 1011.1 |
| 20260503222503 | 13 | 171 | 1.6 | 4.8 | 0.00 | 0.00 | 0.00 | 36 | 1011.1 |
| 20260503222000 | 13 | 232 | 3.2 | 9.7 | 0.00 | 0.00 | 0.00 | 35 | 1011.0 |
| 20260503221458 | 13 | 313 | 9.7 | 20.9 | 0.00 | 0.00 | 0.00 | 34 | 1010.8 |
| 20260503220955 | 13 | 343 | 3.2 | 3.2 | 0.00 | 0.00 | 0.00 | 35 | 1011.2 |
| 20260503220452 | 13 | 51 | 8.0 | 12.9 | 0.00 | 0.00 | 0.00 | 35 | 1010.9 |
| 20260503215948 | 13 | 95 | 3.2 | 12.9 | 0.00 | 0.00 | 0.00 | 35 | 1011.0 |
| 20260503215445 | 13 | 352 | 1.6 | 12.9 | 0.00 | 0.00 | 0.00 | 34 | 1011.0 |
| 20260503214943 | 13 | 301 | 4.8 | 8.0 | 0.00 | 0.00 | 0.00 | 34 | 1011.0 |
| 20260503214441 | 13 | 173 | 0.0 | 1.6 | 0.00 | 0.00 | 0.00 | 35 | 1010.9 |
| 20260503213938 | 13 | 287 | 4.8 | 11.3 | 0.00 | 0.00 | 0.00 | 36 | 1011.0 |
| 20260503213436 | 12 | 202 | 4.8 | 8.0 | 0.00 | 0.00 | 0.00 | 36 | 1010.7 |
| 20260503212932 | 12 | 36 | 4.8 | 12.9 | 0.00 | 0.00 | 0.00 | 36 | 1010.7 |
| 20260503212430 | 13 | 240 | 8.0 | 16.1 | 0.00 | 0.00 | 0.00 | 36 | 1011.1 |
| 20260503211927 | 13 | 258 | 8.0 | 12.9 | 0.00 | 0.00 | 0.00 | 36 | 1011.2 |
| 20260503211424 | 13 | 159 | 8.0 | 12.9 | 0.00 | 0.00 | 0.00 | 35 | 1011.1 |
| 20260503210919 | 13 | 272 | 9.7 | 14.5 | 0.00 | 0.00 | 0.00 | 36 | 1010.9 |
| 20260503210416 | 12 | 310 | 0.0 | 11.3 | 0.00 | 0.00 | 0.00 | 37 | 1011.1 |
| 20260503205910 | 13 | 158 | 3.2 | 17.7 | 0.00 | 0.00 | 0.00 | 36 | 1011.0 |
| 20260503205408 | 13 | 13 | 4.8 | 8.0 | 0.00 | 0.00 | 0.00 | 36 | 1010.8 |
| 20260503204904 | 12 | 146 | 1.6 | 17.7 | 0.00 | 0.00 | 0.00 | 37 | 1011.1 |
| 20260503204401 | 12 | 281 | 4.8 | 8.0 | 0.00 | 0.00 | 0.00 | 38 | 1011.0 |
| 20260503203858 | 12 | 203 | 4.8 | 14.5 | 0.00 | 0.00 | 0.00 | 38 | 1010.9 |
| 20260503203356 | 12 | 224 | 12.9 | 17.7 | 0.00 | 0.00 | 0.00 | 37 | 1010.9 |
| 20260503202852 | 12 | 166 | 6.4 | 14.5 | 0.00 | 0.00 | 0.00 | 37 | 1011.1 |
| 20260503202351 | 12 | 309 | 6.4 | 17.7 | 0.00 | 0.00 | 0.00 | 38 | 1011.0 |
| 20260503201849 | 12 | 206 | 3.2 | 12.9 | 0.00 | 0.00 | 0.00 | 37 | 1011.2 |
| 20260503201345 | 12 | 264 | 6.4 | 11.3 | 0.00 | 0.00 | 0.00 | 36 | 1011.0 |
| 20260503200843 | 12 | 214 | 17.7 | 25.7 | 0.00 | 0.00 | 0.00 | 36 | 1011.0 |
| 20260503200338 | 12 | 29 | 4.8 | 14.5 | 0.00 | 0.00 | 0.00 | 37 | 1010.9 |
| 20260503195836 | 12 | 294 | 11.3 | 16.1 | 0.00 | 0.00 | 0.00 | 39 | 1011.0 |
| 20260503195332 | 11 | 52 | 3.2 | 12.9 | 0.00 | 0.00 | 0.00 | 40 | 1011.0 |
| 20260503194830 | 12 | 136 | 3.2 | 17.7 | 0.00 | 0.00 | 0.00 | 39 | 1011.2 |
| 20260503194326 | 12 | 317 | 8.0 | 11.3 | 0.00 | 0.00 | 0.00 | 38 | 1011.0 |
| 20260503193822 | 11 | 190 | 6.4 | 29.0 | 0.00 | 0.00 | 0.00 | 40 | 1011.0 |
| 20260503193318 | 12 | 348 | 8.0 | 25.7 | 0.00 | 0.00 | 0.00 | 38 | 1011.0 |
| 20260503192814 | 11 | 195 | 9.7 | 16.1 | 0.00 | 0.00 | 0.00 | 40 | 1011.1 |
| 20260503192310 | 11 | 69 | 9.7 | 17.7 | 0.00 | 0.00 | 0.00 | 40 | 1011.0 |
| 20260503191806 | 11 | 309 | 4.8 | 11.3 | 0.00 | 0.00 | 0.00 | 41 | 1011.1 |
| 20260503191303 | 11 | 229 | 4.8 | 14.5 | 0.00 | 0.00 | 0.00 | 41 | 1011.0 |
| 20260503190800 | 11 | 171 | 1.6 | 4.8 | 0.00 | 0.00 | 0.00 | 44 | 1011.1 |
| 20260503190257 | 11 | 43 | 4.8 | 16.1 | 0.00 | 0.00 | 0.00 | 42 | 1011.1 |
| 20260503185754 | 12 | 321 | 1.6 | 8.0 | 0.00 | 0.00 | 0.00 | 40 | 1011.0 |
| 20260503185250 | 11 | 323 | 6.4 | 11.3 | 0.00 | 0.00 | 0.00 | 39 | 1011.0 |
| 20260503184744 | 11 | 188 | 1.6 | 9.7 | 0.00 | 0.00 | 0.00 | 41 | 1010.7 |
| 20260503184241 | 12 | 33 | 1.6 | 9.7 | 0.00 | 0.00 | 0.00 | 40 | 1011.0 |
| 20260503183737 | 11 | 6 | 6.4 | 17.7 | 0.00 | 0.00 | 0.00 | 39 | 1011.1 |
| 20260503183235 | 11 | 257 | 9.7 | 12.9 | 0.00 | 0.00 | 0.00 | 40 | 1011.0 |
| 20260503182732 | 11 | 4 | 8.0 | 14.5 | 0.00 | 0.00 | 0.00 | 40 | 1011.2 |
| 20260503182231 | 12 | 224 | 4.8 | 11.3 | 0.00 | 0.00 | 0.00 | 41 | 1010.8 |
| 20260503181728 | 11 | 348 | 8.0 | 11.3 | 0.00 | 0.00 | 0.00 | 38 | 1011.2 |
| 20260503181225 | 11 | 184 | 3.2 | 11.3 | 0.00 | 0.00 | 0.00 | 42 | 1010.9 |
| 20260503180721 | 11 | 52 | 4.8 | 8.0 | 0.00 | 0.00 | 0.00 | 40 | 1010.8 |
| 20260503180219 | 11 | 304 | 1.6 | 9.7 | 0.00 | 0.00 | 0.00 | 40 | 1011.0 |
| 20260503175715 | 11 | 290 | 11.3 | 20.9 | 0.00 | 0.00 | 0.00 | 39 | 1010.8 |
| 20260503175214 | 11 | 59 | 4.8 | 12.9 | 0.00 | 0.00 | 0.00 | 41 | 1010.8 |
| 20260503174709 | 10 | 285 | 3.2 | 8.0 | 0.00 | 0.00 | 0.00 | 41 | 1011.1 |
| 20260503174207 | 11 | 4 | 9.7 | 20.9 | 0.00 | 0.00 | 0.00 | 39 | 1011.0 |
| 20260503173707 | 11 | 256 | 9.7 | 17.7 | 0.00 | 0.00 | 0.00 | 40 | 1011.0 |
| 20260503173204 | 11 | 231 | 6.4 | 17.7 | 0.00 | 0.00 | 0.00 | 39 | 1011.0 |
| 20260503172701 | 11 | 226 | 4.8 | 12.9 | 0.00 | 0.00 | 0.00 | 40 | 1011.1 |
| 20260503172158 | 10 | 143 | 3.2 | 14.5 | 0.00 | 0.00 | 0.00 | 43 | 1011.3 |
| 20260503171654 | 10 | 265 | 6.4 | 20.9 | 0.00 | 0.00 | 0.00 | 43 | 1011.3 |
| 20260503171152 | 10 | 114 | 4.8 | 8.0 | 0.00 | 0.00 | 0.00 | 46 | 1011.1 |
| 20260503170649 | 10 | 300 | 12.9 | 17.7 | 0.00 | 0.00 | 0.00 | 45 | 1011.3 |
| 20260503170145 | 10 | 27 | 3.2 | 16.1 | 0.00 | 0.00 | 0.00 | 47 | 1011.1 |
| 20260503160107 | 9 | 268 | 4.8 | 8.0 | 0.00 | 0.00 | 0.00 | 53 | 1011.8 |